Powrót do katalogu

SL-12 R/B(2)

AktywnyGEO
NORAD 20394·ROCKET BODY·🇷🇺 Russia

Wystrzelony Dec 27, 1989 z Baikonur Cosmodrome

Loading…

TLE

ŚwieżeSource: Space-Track

Epoka: Sep 14, 2026, 00:02 UTC

1 20394U 89101D   26257.00146976 -.00000213  00000-0  00000-0 0  9999
2 20394  13.1627 336.8867 0011843 241.0113 118.2909  0.98249660120041

Śledź SL-12 R/B(2) w czasie rzeczywistym z AllMySat

Download on the App Store